Location: La Comballaz
(46.3780°N, 7.0817°E)
Time: 11:05:59
(UTC+00:00)

BREEZE M DEB (TANK) - Pass Details

Date: 09 April 2020
Orbit: 313 x 13666 km, 49.6° (Epoch: 23 May)

Event Time Altitude Azimuth Distance (km) Brightness Sun altitude
Rises 20:40:08 0° 258° (WSW) 5,638 8.4 -23.4°
Reaches altitude 10° 20:45:23 10° 261° (W) 3,263 7.2 -24.1°
Enters shadow 20:51:30 64° 335° (NNW) 612 3.1 -24.8°
